Location: Newark
(13.8117°N, 3.6025°W)
Time: 00:47:38
(UTC+00:00)

Explorer 11/Cluster Stage 4 - Pass Details

Date: 03 September 2019
Orbit: 467 x 1260 km, 28.8° (Epoch: 20 September)

Event Time Altitude Azimuth Distance (km) Brightness Sun altitude
Rises 11:11:06 0° 301° (WNW) 3,817 9.9 73.4°
Reaches altitude 10° 11:13:44 10° 305° (NW) 2,959 9.5 74.0°
Maximum altitude 11:21:12 62° 25° (NNE) 1,350 9.0 75.6°
Drops below altitude 10° 11:29:22 10° 104° (ESE) 3,230 10.1 77.4°
Sets 11:32:21 0° 107° (ESE) 4,185 10.5 78.0°
